Theta_e
310 308 305 303 302 301 301 300 300 299 299 298 298 297 297 296 296 295 295 295 294 294 294 294 294 294 294 293 293 293 292 292 291 291 290 290 290 289 289 289 289 288
307 305 303 302 301 300 300 299 299 299 298 297 297 297 296 296 296 295 295 295 295 294 294 294 294 294 294 293 293 292 292 291 291 290 290 289 289 289 289 288 288 288
304 302 302 301 300 300 299 298 298 298 297 297 297 297 296 296 296 295 295 295 295 295 294 294 294 294 294 293 293 292 291 291 290 290 290 289 289 289 288 288 288 288
302 301 301 300 299 299 299 298 297 297 297 297 297 296 296 296 295 295 295 295 295 295 295 294 294 294 294 293 292 292 291 290 290 290 289 289 289 288 288 288 288 288
301 300 300 299 299 299 298 298 297 297 297 297 296 296 295 296 296 296 296 296 295 295 295 294 294 294 294 293 292 292 291 290 290 289 289 289 289 288 288 288 288 288
300 299 299 298 298 298 298 297 297 297 297 296 296 296 295 296 296 296 296 296 295 295 295 294 294 294 293 293 292 291 291 290 289 289 289 289 288 288 288 288 288 287
299 298 298 298 297 297 297 297 296 296 296 296 296 295 295 296 296 296 296 295 295 295 295 294 294 293 293 292 292 291 290 290 289 289 289 288 288 288 288 288 287 287
299 298 297 297 297 296 296 296 296 296 296 295 295 295 295 296 296 296 296 295 295 294 294 294 293 293 292 292 291 290 290 290 289 289 289 288 288 288 288 287 287 287
298 297 297 297 296 296 295 295 295 295 295 295 295 295 295 295 295 295 295 295 294 294 294 293 293 292 292 291 290 290 290 289 289 289 289 288 288 288 287 287 287 287
297 297 297 296 296 295 295 295 295 295 294 294 294 294 295 295 294 294 294 294 294 293 293 293 292 292 291 291 290 290 290 289 289 289 289 288 288 287 287 287 287 286
297 296 297 296 296 295 294 294 294 294 294 294 294 294 294 294 294 294 293 293 293 293 293 292 292 292 291 290 290 290 289 289 289 289 288 288 288 287 287 287 286 286
297 297 296 296 295 295 294 294 294 294 293 293 293 293 294 294 294 293 293 293 292 292 292 292 292 291 291 290 290 290 289 289 289 288 288 288 287 287 286 286 286 286
298 297 296 296 295 294 294 294 293 293 293 293 293 293 293 293 293 293 292 292 292 292 291 291 291 291 290 290 290 289 289 289 289 288 288 288 287 286 286 286 286 286
298 297 296 295 294 294 293 293 293 293 293 293 293 293 293 293 293 292 292 292 291 291 291 291 290 290 290 290 290 289 289 289 289 288 288 287 287 286 286 286 286 286
298 296 296 295 294 293 293 293 292 292 292 292 292 292 292 292 292 292 292 291 291 291 290 290 290 290 289 289 289 289 289 289 288 288 288 287 286 286 286 286 286 285
297 296 295 294 293 293 293 292 292 292 292 292 292 292 292 291 291 291 291 291 290 291 290 290 290 289 289 289 289 289 289 289 288 288 288 287 287 286 286 286 286 285
297 296 295 294 293 293 292 292 292 292 292 292 291 291 291 291 291 291 290 290 290 290 290 290 290 289 289 289 289 289 289 288 288 288 288 287 287 286 286 286 285 285
298 296 295 294 293 292 292 292 291 291 291 291 291 291 291 290 290 290 290 290 290 290 290 290 289 289 289 289 289 289 289 288 288 288 288 287 287 287 286 286 286 285
298 297 295 294 293 292 292 291 291 291 291 291 291 290 290 290 290 290 290 290 290 290 290 289 289 289 289 289 289 289 289 288 288 288 287 287 287 287 287 287 286 286
298 296 295 294 292 292 291 291 291 291 290 290 290 290 290 290 290 290 290 290 290 290 290 289 289 289 289 289 289 289 289 288 288 288 287 287 287 287 287 287 287 286
297 296 295 294 292 292 291 291 291 291 290 290 290 290 289 289 290 290 290 290 290 289 289 290 290 289 289 289 289 289 288 288 288 288 287 287 287 287 287 287 287 287
297 296 295 294 293 292 291 291 291 291 290 290 290 289 289 289 290 290 290 290 290 289 290 290 290 289 289 289 289 289 288 288 288 288 288 287 287 287 287 287 287 287
297 296 295 295 293 292 291 291 291 291 290 290 290 289 289 290 291 290 290 290 289 289 290 290 290 289 289 289 289 288 288 288 288 288 287 287 287 287 287 287 287 287
298 296 295 295 294 293 292 292 291 290 290 290 289 289 290 292 292 290 289 289 289 289 290 290 290 290 289 289 289 288 288 288 288 288 287 287 287 287 287 287 286 286
298 297 296 296 295 294 293 292 291 290 290 290 289 290 291 292 291 289 289 289 289 289 289 290 290 290 289 289 289 288 288 288 287 287 287 287 287 287 286 286 286 286
298 298 297 296 296 294 292 291 290 290 290 290 290 290 291 291 290 289 289 289 289 289 289 289 290 290 290 289 288 288 287 287 287 287 287 287 287 287 286 286 286 286
Wind_Speed
27 29 32 32 30 28 26 25 24 22 21 20 19 18 17 15 14 13 11 10 9 8 7 7 7 7 7 7 7 6 6 6 5 5 5 5 5 5 5 6 7 7
30 32 33 31 30 28 26 25 24 23 22 21 20 18 17 16 14 13 11 10 9 7 7 6 6 6 5 5 5 5 4 4 4 3 4 4 4 5 5 5 6 7
33 35 34 31 30 29 27 26 25 24 23 22 20 18 17 16 15 14 12 9 8 7 6 5 5 4 3 3 4 4 3 3 3 3 3 3 3 4 4 5 6 7
35 35 33 31 30 29 28 28 27 26 24 22 21 20 18 17 15 13 12 10 7 6 5 5 4 3 3 2 3 2 2 2 3 3 3 3 3 4 4 5 6 7
37 36 34 32 31 30 29 29 28 27 25 23 22 21 19 17 15 13 11 9 8 7 6 5 4 3 2 2 2 1 1 2 2 3 3 4 4 4 5 5 6 7
38 37 35 33 32 31 30 30 29 27 26 25 24 22 20 18 15 13 11 10 9 8 7 6 5 4 3 3 2 1 1 2 3 3 4 4 5 5 5 6 7 7
39 38 36 34 33 32 32 31 30 28 27 26 25 23 21 19 17 14 13 11 10 9 9 8 7 6 5 4 3 2 2 2 3 4 5 5 5 6 6 7 8 8
39 39 37 36 35 34 33 32 31 29 28 27 26 24 22 20 18 16 15 14 13 12 11 10 9 7 6 6 4 3 3 3 4 5 5 6 6 7 7 8 9 9
41 40 39 37 37 36 35 33 32 30 29 28 27 25 23 21 19 18 17 16 16 15 13 12 10 9 8 7 5 4 3 4 5 5 5 6 7 8 9 10 10 11
42 41 40 39 38 37 36 34 33 32 31 30 28 26 24 23 21 20 19 18 17 16 15 13 12 11 9 7 6 5 4 5 5 5 6 7 8 9 10 11 12 12
44 43 42 41 40 39 37 35 34 33 32 31 29 27 25 24 23 22 21 19 18 17 16 15 13 12 10 8 7 6 5 5 5 5 6 8 9 10 11 12 12 13
46 45 44 42 41 39 38 36 35 34 34 32 31 28 26 25 23 22 21 20 19 18 17 16 14 13 11 9 8 7 6 5 5 6 7 8 10 11 12 12 13 13
48 46 44 43 42 40 39 37 36 36 35 33 31 29 27 25 24 23 22 21 21 20 18 16 15 14 12 10 9 8 7 6 5 6 7 8 9 10 11 12 13 14
48 46 45 43 42 41 40 38 37 37 35 33 32 30 28 26 24 23 23 23 22 20 18 17 15 14 13 11 10 9 8 6 5 6 6 7 8 9 10 11 13 13
47 46 45 44 43 42 41 40 39 38 36 34 32 31 29 27 26 25 25 24 23 21 19 18 16 15 14 12 10 9 9 7 6 5 6 7 7 8 9 11 12 13
48 47 46 45 44 42 42 40 39 38 37 35 34 32 30 29 28 27 26 25 24 22 20 19 17 16 15 13 12 11 10 8 6 5 6 6 7 8 9 10 11 12
48 47 46 45 44 43 42 41 40 39 38 36 35 34 32 31 29 29 27 26 24 22 20 19 18 18 17 15 14 13 11 9 7 6 6 6 7 8 9 10 11 13
47 47 46 45 45 44 43 42 40 40 38 37 37 35 34 32 31 29 28 26 25 23 21 20 19 19 18 17 16 14 12 11 9 7 6 6 6 7 8 10 11 12
47 47 46 46 46 45 43 42 41 40 39 38 37 36 34 33 31 30 29 28 27 25 23 21 21 21 21 19 18 16 14 13 11 9 7 6 6 6 7 9 10 11
48 48 46 45 45 44 43 42 41 41 40 39 38 36 36 34 32 31 30 29 28 27 24 22 22 23 23 21 19 18 17 15 13 11 10 8 8 8 8 9 11 12
48 47 45 44 44 44 44 43 42 41 41 40 38 38 36 34 32 31 32 31 30 28 25 23 24 26 25 22 21 20 19 18 16 14 13 11 10 11 11 11 12 13
47 46 45 44 44 45 45 44 43 43 42 40 39 39 37 35 34 34 34 34 32 30 27 25 27 28 26 25 24 23 22 21 19 17 16 14 13 13 14 14 14 14
46 45 45 44 45 46 47 46 45 44 42 41 41 40 40 38 36 36 37 36 34 32 29 27 28 29 28 27 26 26 25 24 21 20 18 17 16 16 16 16 16 16
45 45 45 45 46 48 48 46 45 44 43 42 41 42 42 40 38 38 39 38 37 34 31 28 29 29 29 29 29 28 27 25 23 22 21 20 19 19 19 18 18 17
44 45 46 46 47 48 48 46 45 44 43 42 43 44 44 41 39 41 42 40 39 36 32 30 30 31 31 31 31 30 29 27 26 24 23 22 22 21 21 20 19 19
42 44 45 46 47 47 46 45 44 44 44 44 45 46 45 41 42 44 44 42 41 38 35 33 32 32 33 33 33 32 32 30 28 27 25 24 24 24 24 23 21 20
Wind_Direction
203 198 189 182 180 181 178 177 179 179 179 178 177 174 169 166 161 156 153 147 137 127 114 101 90 82 73 67 60 49 41 31 23 17 14 11 5 4 4 359 360 359
198 193 188 184 183 182 181 180 182 183 182 180 178 176 172 170 165 158 155 151 141 129 116 105 97 89 78 69 60 51 42 31 20 10 5 2 356 356 358 356 355 350
194 191 189 188 186 185 183 183 184 186 185 182 179 178 176 173 169 162 157 152 144 136 127 120 114 104 94 82 68 57 46 27 9 354 347 345 341 342 344 345 345 342
192 192 192 190 189 188 188 187 188 188 187 185 182 180 179 176 171 167 162 158 154 153 148 142 141 134 121 102 81 65 44 8 341 325 319 317 317 324 330 332 335 334
192 193 193 192 192 192 193 193 192 190 189 188 186 183 181 178 175 173 172 170 169 170 167 164 167 166 157 142 107 66 13 328 299 288 293 299 304 311 316 319 322 322
194 195 195 194 195 196 197 196 195 194 191 191 189 185 183 182 181 181 181 182 180 180 182 185 189 189 189 182 161 178 252 262 269 276 286 291 293 297 301 305 308 309
196 196 196 197 197 199 200 199 197 196 195 193 191 188 187 187 188 187 189 190 188 188 192 194 196 196 197 195 189 200 219 246 269 276 278 281 283 287 292 297 297 297
198 198 198 199 199 200 201 200 199 197 196 195 193 192 192 192 193 194 194 194 192 193 194 193 194 197 200 197 191 201 224 252 267 269 270 273 279 285 287 288 288 287
201 201 201 201 202 202 202 201 200 199 197 196 196 195 192 192 194 196 196 196 194 194 194 193 196 200 199 196 194 205 236 256 260 263 269 275 280 283 283 281 280 280
202 203 203 203 204 204 203 202 201 200 198 198 198 197 195 193 194 195 196 196 194 194 195 196 200 203 200 197 201 214 236 249 255 265 275 283 284 281 278 275 274 276
204 205 205 206 206 205 204 204 202 201 201 201 200 200 200 199 198 198 197 197 196 197 198 200 203 205 202 199 205 218 232 243 257 274 283 288 287 280 276 273 273 277
205 206 207 208 207 206 205 205 204 203 204 204 203 203 204 204 204 202 200 199 200 200 201 203 205 204 202 202 208 217 229 242 262 279 290 294 290 282 277 276 277 278
206 208 209 209 209 207 207 206 205 206 207 207 205 206 207 208 206 205 204 204 205 204 203 204 205 205 205 205 208 216 228 244 265 285 300 302 296 289 284 281 280 279
209 209 210 211 210 209 208 208 207 208 209 209 208 209 210 210 209 209 209 208 207 206 205 205 207 209 208 207 209 216 229 245 268 289 306 310 305 299 293 288 284 281
211 211 211 212 212 210 209 209 209 210 210 211 212 212 211 211 211 211 212 211 208 206 205 206 207 207 206 208 212 220 232 248 269 291 310 319 317 313 306 299 292 289
213 213 213 212 213 213 212 211 211 212 213 213 214 213 213 212 211 212 212 211 211 210 209 209 209 210 211 214 219 224 233 247 263 285 306 321 328 328 323 314 306 300
215 215 215 215 215 215 215 214 213 214 215 215 215 214 214 213 212 213 213 211 212 213 212 214 214 215 217 220 223 227 236 246 256 271 293 318 333 338 335 328 319 310
216 217 217 217 217 217 217 215 215 216 216 216 217 216 216 215 214 215 215 214 214 214 215 215 216 219 223 225 226 231 239 245 249 259 279 306 328 339 341 336 326 314
218 219 219 219 219 219 218 218 217 218 219 219 219 219 218 217 217 217 217 217 218 219 217 215 218 226 229 228 230 236 242 244 246 254 268 286 306 321 330 331 326 318
221 220 220 220 221 220 220 220 220 221 222 222 221 221 220 219 220 221 222 222 222 222 218 217 226 233 231 229 235 242 244 243 244 250 260 271 283 293 303 312 316 316
223 222 222 222 223 223 223 223 223 224 224 223 223 224 222 222 225 228 227 226 225 221 218 224 233 234 232 234 242 245 246 245 245 248 256 265 273 281 289 296 302 307
225 224 223 224 225 225 225 226 226 226 225 224 226 224 222 226 231 232 230 229 225 221 223 231 236 234 235 241 245 247 248 249 249 252 256 262 269 276 282 287 294 301
227 226 226 226 226 227 227 228 229 228 226 227 227 224 225 233 237 233 230 229 226 224 228 235 238 237 240 245 247 247 249 251 252 254 257 261 268 273 278 283 290 297
230 229 229 228 229 230 231 232 231 229 229 229 227 227 234 243 242 233 230 230 227 227 231 237 241 242 245 248 248 247 248 251 253 255 257 262 267 271 275 280 286 294
235 234 233 233 234 234 234 233 232 232 232 231 230 234 243 248 241 232 230 230 229 228 229 235 242 245 247 249 248 247 249 251 253 255 258 263 267 270 274 278 284 290
240 240 239 239 239 238 236 235 234 235 235 235 236 241 245 244 236 231 232 232 230 229 231 235 241 245 248 249 248 248 250 252 253 255 258 263 266 269 272 276 282 287